GW6248 Weather Reports


time (UTC)temp
F
wind
direction
speed
knots
gust
knots
rain 1hr
in
rain 24hr
in
rain mn
in
humidity
%
barometer
mb
20260505153003 54 352 0.9 3.5 0.00 0.00 0.00 70 1014.2
20260505152504 55 349 0.9 3.5 0.00 0.00 0.00 64 1014.0
20260505152217 55 275 0.9 2.6 0.00 0.00 0.00 64 1014.3
20260505151503 54 25 0.9 2.6 0.00 0.00 0.00 63 1014.1
20260505151217 54 269 0.9 3.5 0.00 0.00 0.00 65 1014.2
20260505150503 54 272 0.9 3.5 0.00 0.00 0.00 66 1014.3
20260505140503 55 347 0.9 1.7 0.00 0.00 0.00 65 1014.2
20260505130218 55 263 0.9 3.5 0.00 0.00 0.00 62 1014.2
20260505125003 55 257 0.9 3.5 0.00 0.00 0.00 64 1014.0
20260505124717 55 244 0.9 3.5 0.00 0.00 0.00 62 1014.2
20260505124004 55 220 1.7 5.2 0.00 0.00 0.00 60 1014.4
20260505123503 55 203 2.6 5.2 0.00 0.00 0.00 61 1014.3
20260505123218 55 195 1.7 5.2 0.00 0.00 0.00 60 1014.3
20260505122717 55 204 1.7 4.3 0.00 0.00 0.00 60 1014.3
20260505122003 55 202 1.7 4.3 0.00 0.00 0.00 61 1014.2
20260505121503 56 198 1.7 4.3 0.00 0.00 0.00 58 1014.3
20260505121003 56 228 1.7 4.3 0.00 0.00 0.00 55 1014.4
20260505120503 56 235 1.7 3.5 0.00 0.00 0.00 54 1014.1
20260505120003 55 229 1.7 3.5 0.00 0.00 0.00 57 1014.3
20260505115503 55 235 0.9 3.5 0.00 0.00 0.00 55 1014.5
20260505115003 55 260 1.7 3.5 0.00 0.00 0.00 59 1014.3
20260505114503 55 241 2.6 5.2 0.00 0.00 0.00 57 1014.3
20260505114218 55 234 1.7 5.2 0.00 0.00 0.00 59 1014.4
20260505113503 55 292 0.9 3.5 0.00 0.00 0.00 59 1014.3
20260505113003 55 217 1.7 3.5 0.00 0.00 0.00 60 1014.5
20260505112503 54 230 1.7 3.5 0.00 0.00 0.00 60 1014.4
20260505112003 55 276 0.9 2.6 0.00 0.00 0.00 61 1014.7
20260505111503 55 318 0.9 1.7 0.00 0.00 0.00 58 1014.5
20260505111003 55 296 0.9 1.7 0.00 0.00 0.00 61 1014.7
20260505110503 54 260 0.9 1.7 0.00 0.00 0.00 60 1014.6
20260505110217 54 289 0.9 1.7 0.00 0.00 0.00 63 1014.8
20260505102003 52 343 0.9 1.7 0.00 0.00 0.00 76 1014.8
20260505101503 53 324 0.0 1.7 0.00 0.00 0.00 77 1015.1
20260505101003 52 279 0.0 1.7 0.00 0.00 0.00 72 1015.0
20260505100718 52 315 0.0 1.7 0.00 0.00 0.00 72 1015.1
20260505100003 52 337 0.0 1.7 0.00 0.00 0.00 76 1014.9
20260505095718 52 336 0.0 1.7 0.00 0.00 0.00 76 1014.9
20260505095003 52 357 0.0 3.5 0.00 0.00 0.00 76 1015.0
20260505094503 51 264 0.9 3.5 0.00 0.00 0.00 75 1015.1
20260505094217 51 259 0.9 1.7 0.00 0.00 0.00 74 1014.9
20260505093503 51 266 0.0 1.7 0.00 0.00 0.00 76 1014.9
20260505093003 51 298 0.0 1.7 0.00 0.00 0.00 78 1015.2
20260505092503 50 285 0.0 2.6 0.00 0.00 0.00 80 1015.4
20260505092003 50 275 0.9 2.6 0.00 0.00 0.00 82 1015.1
20260505091718 49 269 0.9 2.6 0.00 0.00 0.00 82 1015.3
20260505091003 49 261 0.9 1.7 0.00 0.00 0.00 83 1015.2
20260505090718 49 259 0.9 2.6 0.00 0.00 0.00 84 1015.2
20260505090218 49 256 0.9 2.6 0.00 0.00 0.00 85 1015.6
20260505085717 48 265 0.9 2.6 0.00 0.00 0.00 84 1015.1
20260505085003 48 275 0.9 2.6 0.00 0.00 0.00 86 1015.1
20260505084503 47 265 0.9 2.6 0.00 0.00 0.00 86 1015.2
20260505084003 47 270 0.9 2.6 0.00 0.00 0.00 87 1015.4
20260505083717 47 274 0.9 2.6 0.00 0.00 0.00 88 1015.6
20260505083003 46 267 0.9 2.6 0.00 0.00 0.00 88 1015.5
20260505082503 46 264 0.9 2.6 0.00 0.00 0.00 89 1015.4
20260505082216 46 267 0.9 2.6 0.00 0.00 0.00 89 1015.2
20260505081504 46 295 0.9 1.7 0.00 0.00 0.00 90 1015.3
20260505081003 46 300 0.9 1.7 0.00 0.00 0.00 89 1015.4
20260505080503 46 283 0.9 1.7 0.00 0.00 0.00 90 1015.3
20260505080003 45 281 0.9 1.7 0.00 0.00 0.00 89 1015.3
20260505075503 46 357 0.9 1.7 0.00 0.00 0.00 90 1015.3
20260505075218 45 30 0.9 1.7 0.00 0.00 0.00 90 1015.2
20260505074503 45 29 0.0 1.7 0.00 0.00 0.00 90 1015.2
20260505074218 45 32 0.9 2.6 0.00 0.00 0.00 90 1015.0
20260505073503 45 351 0.9 2.6 0.00 0.00 0.00 90 1015.3
20260505073218 45 287 0.9 2.6 0.00 0.00 0.00 90 1015.5
20260505072503 45 320 0.9 1.7 0.00 0.00 0.00 90 1015.3
20260505072003 45 316 0.9 1.7 0.00 0.00 0.00 90 1015.3
20260505071503 45 319 0.9 2.6 0.00 0.00 0.00 91 1015.4
20260505071003 45 325 0.9 2.6 0.00 0.00 0.00 92 1015.5
20260505070503 44 358 0.9 2.6 0.00 0.00 0.00 92 1015.4
20260505070218 44 22 0.9 2.6 0.00 0.00 0.00 93 1015.5
20260505065503 43 32 0.9 2.6 0.00 0.00 0.00 93 1015.4
20260505065003 43 34 0.9 2.6 0.00 0.00 0.00 94 1015.6
20260505064503 42 28 0.9 1.7 0.00 0.00 0.00 95 1015.7
20260505064218 42 22 0.9 1.7 0.00 0.00 0.00 95 1015.7
20260505063716 42 10 0.9 2.6 0.00 0.00 0.00 96 1015.6
20260505063003 42 20 0.9 2.6 0.00 0.00 0.00 97 1015.6
20260505062719 42 21 0.9 2.6 0.00 0.00 0.00 97 1015.5
20260505062003 41 359 0.9 2.6 0.00 0.00 0.00 97 1015.6
20260505061503 41 325 0.9 1.7 0.00 0.00 0.00 97 1015.5
20260505061004 40 325 0.9 1.7 0.00 0.00 0.00 97 1015.6
20260505060503 40 327 0.9 2.6 0.00 0.00 0.00 97 1015.7
20260505060003 40 316 0.9 2.6 0.00 0.00 0.00 97 1015.7
20260505055503 39 309 0.9 2.6 0.00 0.00 0.00 97 1015.8
20260505055003 39 318 0.9 2.6 0.00 0.00 0.00 97 1015.7
20260505054503 39 331 0.9 2.6 0.00 0.00 0.00 97 1015.5
20260505054003 39 332 0.9 1.7 0.00 0.00 0.00 97 1015.7
20260505053503 39 344 0.9 1.7 0.00 0.00 0.00 97 1015.6
20260505053003 39 335 0.9 2.6 0.00 0.00 0.00 97 1015.7
20260505052503 38 313 0.9 2.6 0.00 0.00 0.00 97 1015.6
20260505052003 38 337 0.9 2.6 0.00 0.00 0.00 97 1015.6
20260505051718 38 350 0.9 1.7 0.00 0.00 0.00 97 1015.5
20260505051003 39 347 0.9 1.7 0.00 0.00 0.00 97 1015.5
20260505050503 39 343 0.9 1.7 0.00 0.00 0.00 97 1015.6
20260505041503 39 8 0.9 1.7 0.00 0.00 0.00 96 1015.3
20260505041003 39 350 0.9 1.7 0.00 0.00 0.00 96 1015.1
20260505040718 39 334 0.9 1.7 0.00 0.00 0.00 96 1015.5
20260505040004 39 338 0.9 1.7 0.00 0.00 0.00 96 1015.3
20260505035503 39 322 0.9 1.7 0.00 0.00 0.00 96 1015.3
20260505035003 40 316 0.9 1.7 0.00 0.00 0.00 96 1015.3
20260505034503 40 315 0.9 1.7 0.00 0.00 0.00 96 1015.4
20260505034003 40 318 0.0 1.7 0.00 0.00 0.00 96 1015.4
20260505033717 40 323 0.0 1.7 0.00 0.00 0.00 96 1015.3
20260505033003 40 331 0.0 1.7 0.00 0.00 0.00 96 1015.2
20260505032503 40 348 0.0 1.7 0.00 0.00 0.00 96 1015.3
20260505032003 40 4 0.0 1.7 0.00 0.00 0.00 96 1015.4
20260505031503 41 357 0.0 1.7 0.00 0.00 0.00 96 1015.5
20260505031003 41 324 0.0 1.7 0.00 0.00 0.00 96 1015.3
20260505030503 41 315 0.0 1.7 0.00 0.00 0.00 96 1015.3
20260505030004 41 323 0.9 1.7 0.00 0.00 0.00 95 1015.2
20260505025503 41 321 0.9 1.7 0.00 0.00 0.00 95 1015.2
20260505025003 41 317 0.9 1.7 0.00 0.00 0.00 95 1015.0
20260505024503 41 328 0.9 1.7 0.00 0.00 0.00 95 1015.3
20260505024003 41 335 0.9 1.7 0.00 0.00 0.00 95 1015.1
20260505023717 41 334 0.9 1.7 0.00 0.00 0.00 95 1015.2
20260505023003 42 338 0.0 1.7 0.00 0.00 0.00 95 1015.2
20260505022503 42 334 0.0 1.7 0.00 0.00 0.00 94 1015.2
20260505022003 42 329 0.9 1.7 0.00 0.00 0.00 94 1015.2
20260505021717 42 323 0.0 1.7 0.00 0.00 0.00 94 1015.3
20260505021003 42 326 0.0 0.9 0.00 0.00 0.00 94 1015.4
20260505020503 42 306 0.0 1.7 0.00 0.00 0.00 94 1015.2
20260505020003 42 300 0.0 1.7 0.00 0.00 0.00 94 1015.3
20260505015503 42 318 0.0 1.7 0.00 0.00 0.00 94 1015.2
20260505015218 42 321 0.0 1.7 0.00 0.00 0.00 93 1015.5
20260505014503 43 344 0.0 1.7 0.00 0.00 0.00 93 1015.4
20260505014003 43 353 0.0 1.7 0.00 0.00 0.00 93 1015.2
20260505013717 43 348 0.0 0.9 0.00 0.00 0.00 93 1015.5
20260505013003 43 325 0.0 1.7 0.00 0.00 0.00 93 1015.5
20260505012503 44 354 0.0 1.7 0.00 0.00 0.00 92 1015.5
20260505012003 44 331 0.0 1.7 0.00 0.00 0.00 92 1015.6
20260505011503 44 325 0.0 1.7 0.00 0.00 0.00 92 1015.8
20260505011003 44 333 0.0 1.7 0.00 0.00 0.00 92 1015.7
20260505010504 44 319 0.9 1.7 0.00 0.00 0.00 91 1015.4
20260505010217 45 312 0.9 1.7 0.00 0.00 0.00 91 1015.7
20260505005503 45 315 0.0 1.7 0.00 0.00 0.00 91 1015.6
20260505005004 45 315 0.0 1.7 0.00 0.00 0.00 91 1015.4
20260505004503 46 345 0.0 0.9 0.00 0.00 0.00 91 1015.6
20260505004003 46 337 0.0 0.9 0.00 0.00 0.00 90 1015.7
20260505003503 46 325 0.9 1.7 0.00 0.00 0.00 90 1015.7
20260505003003 46 317 0.9 1.7 0.00 0.00 0.00 90 1015.7
20260505002503 46 311 0.9 1.7 0.00 0.00 0.00 90 1015.7
20260505002003 47 309 0.0 1.7 0.00 0.00 0.00 90 1015.7
20260505001503 47 309 0.0 1.7 0.00 0.00 0.00 89 1015.8
20260505001003 47 313 0.0 1.7 0.00 0.00 0.00 89 1015.8
20260505000503 47 327 0.0 0.9 0.00 0.00 0.00 89 1015.8
20260505000003 47 325 0.0 1.7 0.00 0.00 0.00 89 1015.8
20260504235503 47 311 0.0 1.7 0.00 0.00 0.00 89 1015.9
20260504235003 48 313 0.0 1.7 0.00 0.00 0.00 88 1015.9
20260504234503 48 328 0.9 1.7 0.00 0.00 0.00 88 1015.8
20260504234003 48 326 0.9 1.7 0.00 0.00 0.00 88 1015.7
20260504233503 48 317 0.9 1.7 0.00 0.00 0.00 87 1015.8
20260504233003 48 306 0.9 1.7 0.00 0.00 0.00 87 1015.9
20260504232503 49 300 0.9 1.7 0.00 0.00 0.00 86 1015.8
20260504232003 50 314 0.0 1.7 0.00 0.00 0.00 85 1015.6
20260504231503 50 320 0.0 1.7 0.00 0.00 0.00 86 1015.7
20260504231003 50 318 0.9 1.7 0.00 0.00 0.00 85 1015.8
20260504230503 50 318 0.9 1.7 0.00 0.00 0.00 85 1015.9
20260504230003 50 319 0.0 1.7 0.00 0.00 0.00 85 1015.9
20260504225503 50 315 0.0 1.7 0.00 0.00 0.00 84 1015.9
20260504225003 51 311 0.0 1.7 0.00 0.00 0.00 84 1015.8
20260504224503 51 313 0.0 1.7 0.00 0.00 0.00 83 1015.9
20260504224003 51 311 0.9 1.7 0.00 0.00 0.00 83 1015.8
20260504223503 51 307 0.9 1.7 0.00 0.00 0.00 83 1015.8
20260504223003 51 312 0.9 1.7 0.00 0.00 0.00 83 1015.7
20260504222503 51 323 0.9 1.7 0.00 0.00 0.00 82 1016.0
20260504222003 51 318 0.9 1.7 0.00 0.00 0.00 82 1015.9
20260504221503 51 313 0.9 1.7 0.00 0.00 0.00 82 1016.1
20260504221003 51 317 0.9 1.7 0.00 0.00 0.00 83 1016.0
20260504220503 51 319 0.9 1.7 0.00 0.00 0.00 82 1016.0
20260504220003 51 308 0.9 1.7 0.00 0.00 0.00 83 1016.0
20260504215503 52 307 0.9 1.7 0.00 0.00 0.00 83 1016.1
20260504215003 52 319 0.9 1.7 0.00 0.00 0.00 83 1015.8
20260504214503 52 314 0.9 1.7 0.00 0.00 0.00 82 1016.2
20260504214003 52 314 0.9 1.7 0.00 0.00 0.00 82 1016.0
20260504213503 52 321 0.9 1.7 0.00 0.00 0.00 82 1016.1
20260504213218 52 315 0.9 1.7 0.00 0.00 0.00 82 1015.9
20260504212503 52 305 0.9 1.7 0.00 0.00 0.00 81 1016.0
20260504212003 52 310 0.9 1.7 0.00 0.00 0.00 81 1015.9
20260504211503 52 308 0.9 1.7 0.00 0.00 0.00 80 1016.1
20260504211003 52 308 0.9 1.7 0.00 0.00 0.00 80 1016.1
20260504210503 52 313 0.9 1.7 0.00 0.00 0.00 80 1016.0
20260504210218 52 320 0.9 1.7 0.00 0.00 0.00 80 1016.1
20260504205717 52 316 0.9 1.7 0.00 0.00 0.00 80 1016.0
20260504205003 52 321 0.0 1.7 0.00 0.00 0.00 81 1016.0
20260504204504 53 325 0.0 1.7 0.00 0.00 0.00 81 1016.0
20260504204003 53 313 0.0 1.7 0.00 0.00 0.00 80 1016.0
20260504203503 53 312 0.0 1.7 0.00 0.00 0.00 80 1015.9
20260504203003 53 310 0.9 1.7 0.00 0.00 0.00 79 1015.7
20260504202504 54 308 0.9 1.7 0.00 0.00 0.00 79 1015.7
20260504202003 54 322 0.9 1.7 0.00 0.00 0.00 79 1015.7
20260504201503 54 289 0.9 2.6 0.00 0.00 0.00 78 1015.6
20260504201003 54 267 0.9 3.5 0.00 0.00 0.00 78 1015.6
20260504200503 54 264 0.9 3.5 0.00 0.00 0.00 77 1015.3
20260504200003 54 268 0.9 3.5 0.00 0.00 0.00 78 1015.4
20260504195503 55 298 0.9 1.7 0.00 0.00 0.00 79 1015.2
20260504195217 55 300 0.9 1.7 0.00 0.00 0.00 79 1015.2
20260504194503 55 286 0.9 2.6 0.00 0.00 0.00 79 1015.2
20260504194003 55 287 0.9 2.6 0.00 0.00 0.00 78 1015.2
20260504193503 55 276 0.9 2.6 0.00 0.00 0.00 78 1014.9
20260504193003 56 282 0.9 2.6 0.00 0.00 0.00 77 1015.0
20260504192503 56 284 0.9 1.7 0.00 0.00 0.00 78 1014.8
20260504192003 56 290 0.9 1.7 0.00 0.00 0.00 78 1014.8
20260504191503 56 317 0.9 1.7 0.00 0.00 0.00 78 1014.9
20260504191003 57 329 0.0 1.7 0.00 0.00 0.00 78 1014.6
20260504190504 57 340 0.0 1.7 0.00 0.00 0.00 77 1014.7
20260504190003 57 332 0.9 1.7 0.00 0.00 0.00 78 1014.8
20260504185503 57 331 0.9 1.7 0.00 0.00 0.00 76 1014.7
20260504185003 57 340 0.9 1.7 0.00 0.00 0.00 77 1014.6
20260504184503 57 347 0.9 1.7 0.00 0.00 0.00 77 1014.3
20260504184217 57 340 0.9 1.7 0.00 0.00 0.00 77 1014.6
20260504183503 57 339 0.9 1.7 0.00 0.00 0.00 76 1014.3
20260504183004 57 345 0.9 1.7 0.00 0.00 0.00 76 1014.4
20260504182504 57 348 0.9 1.7 0.00 0.00 0.00 75 1014.3
20260504182003 57 345 0.9 1.7 0.00 0.00 0.00 76 1014.3
20260504181503 58 337 0.9 1.7 0.00 0.00 0.00 76 1014.3
20260504181003 58 333 0.9 1.7 0.00 0.00 0.00 75 1014.3
20260504180503 58 337 0.9 1.7 0.00 0.00 0.00 75 1014.2
20260504180217 58 338 0.9 1.7 0.00 0.00 0.00 74 1014.4
20260504175718 58 330 0.9 1.7 0.00 0.00 0.00 73 1014.1
20260504175003 58 319 0.9 1.7 0.00 0.00 0.00 73 1014.2
20260504174503 58 320 0.0 1.7 0.00 0.00 0.00 72 1014.4
20260504174003 58 329 0.9 1.7 0.00 0.00 0.00 73 1014.1
20260504173503 58 335 0.9 2.6 0.00 0.00 0.00 73 1014.3
20260504173217 59 338 0.9 2.6 0.00 0.00 0.00 73 1014.1
20260504172503 59 335 0.9 1.7 0.00 0.00 0.00 72 1014.0
20260504172003 59 335 0.9 1.7 0.00 0.00 0.00 72 1014.0
20260504171503 60 335 0.9 1.7 0.00 0.00 0.00 71 1014.1
20260504171216 60 332 0.9 1.7 0.00 0.00 0.00 70 1013.9
20260504170503 60 315 0.9 2.6 0.00 0.00 0.00 67 1013.9